| time (UTC) | temp F | wind direction | speed knots | gust knots | rain 1hr in | rain 24hr in | rain mn in | humidity % | barometer mb |
| 20260507193057 | 57 | 5 | 1.7 | 3.5 | 0.00 | 0.02 | 0.01 | 71 | 1012.7 |
| 20260507191557 | 58 | 355 | 1.7 | 3.5 | 0.00 | 0.02 | 0.01 | 69 | 1012.6 |
| 20260507190056 | 59 | 360 | 1.7 | 3.5 | 0.00 | 0.02 | 0.01 | 67 | 1012.5 |
| 20260507184555 | 60 | 341 | 2.6 | 5.2 | 0.00 | 0.20 | 0.01 | 66 | 1012.4 |
| 20260507183057 | 60 | 5 | 4.3 | 7.0 | 0.00 | 0.20 | 0.01 | 65 | 1012.3 |
| 20260507181604 | 61 | 349 | 3.5 | 6.1 | 0.00 | 0.20 | 0.01 | 62 | 1012.3 |
| 20260507180055 | 62 | 12 | 4.3 | 8.7 | 0.00 | 0.20 | 0.01 | 62 | 1012.2 |
| 20260507174558 | 62 | 360 | 4.3 | 9.6 | 0.00 | 0.20 | 0.01 | 62 | 1012.2 |
| 20260507173058 | 63 | 360 | 5.2 | 8.7 | 0.00 | 0.20 | 0.01 | 59 | 1012.2 |
| 20260507171601 | 64 | 5 | 4.3 | 7.0 | 0.00 | 0.20 | 0.01 | 58 | 1012.2 |
| 20260507170052 | 64 | 355 | 4.3 | 7.8 | 0.00 | 0.20 | 0.01 | 59 | 1012.2 |
| 20260507164551 | 65 | 12 | 4.3 | 8.7 | 0.00 | 0.20 | 0.01 | 59 | 1012.3 |
| 20260507163050 | 65 | 22 | 4.3 | 7.8 | 0.00 | 0.20 | 0.01 | 59 | 1012.4 |
| 20260507161559 | 66 | 342 | 3.5 | 7.8 | 0.00 | 0.20 | 0.01 | 57 | 1012.4 |
| 20260507160049 | 66 | 340 | 5.2 | 8.7 | 0.00 | 0.20 | 0.01 | 59 | 1012.5 |
| 20260507154549 | 66 | 290 | 3.5 | 7.0 | 0.00 | 0.20 | 0.01 | 55 | 1012.5 |
| 20260507153108 | 66 | 351 | 1.7 | 7.0 | 0.00 | 0.20 | 0.01 | 54 | 1012.5 |
| 20260507151556 | 66 | 355 | 6.1 | 7.8 | 0.00 | 0.20 | 0.01 | 55 | 1012.7 |
| 20260507150052 | 66 | 355 | 6.1 | 8.7 | 0.00 | 0.20 | 0.01 | 58 | 1012.7 |
| 20260507144548 | 66 | 334 | 4.3 | 8.7 | 0.00 | 0.20 | 0.01 | 57 | 1012.9 |
| 20260507143052 | 66 | 298 | 1.7 | 8.7 | 0.00 | 0.20 | 0.01 | 59 | 1012.9 |
| 20260507141544 | 66 | 14 | 4.3 | 9.6 | 0.00 | 0.20 | 0.01 | 57 | 1013.0 |
| 20260507140043 | 65 | 302 | 1.7 | 7.0 | 0.00 | 0.20 | 0.01 | 60 | 1013.2 |
| 20260507134540 | 65 | 324 | 4.3 | 7.0 | 0.00 | 0.20 | 0.01 | 62 | 1013.3 |
| 20260507133037 | 65 | 9 | 4.3 | 8.7 | 0.00 | 0.20 | 0.01 | 64 | 1013.5 |
| 20260507131536 | 64 | 342 | 5.2 | 9.6 | 0.00 | 0.20 | 0.01 | 64 | 1013.6 |
| 20260507130053 | 64 | 48 | 2.6 | 6.1 | 0.00 | 0.20 | 0.01 | 64 | 1013.7 |
| 20260507124533 | 63 | 341 | 0.9 | 7.8 | 0.00 | 0.20 | 0.01 | 68 | 1013.8 |
| 20260507123037 | 62 | 320 | 4.3 | 7.8 | 0.00 | 0.20 | 0.01 | 69 | 1013.9 |
| 20260507121535 | 63 | 9 | 0.9 | 7.0 | 0.00 | 0.20 | 0.01 | 62 | 1013.9 |
| 20260507120036 | 63 | 344 | 2.6 | 8.7 | 0.00 | 0.20 | 0.01 | 71 | 1013.9 |
| 20260507114528 | 63 | 279 | 3.5 | 7.8 | 0.00 | 0.21 | 0.01 | 73 | 1014.0 |
| 20260507113027 | 62 | 5 | 4.3 | 7.8 | 0.00 | 0.21 | 0.01 | 70 | 1014.2 |
| 20260507111523 | 62 | 310 | 3.5 | 8.7 | 0.00 | 0.21 | 0.01 | 74 | 1014.2 |
| 20260507110025 | 60 | 289 | 2.6 | 7.8 | 0.00 | 0.21 | 0.01 | 74 | 1014.3 |
| 20260507104521 | 60 | 316 | 3.5 | 7.8 | 0.00 | 0.26 | 0.01 | 72 | 1014.4 |
| 20260507103022 | 60 | 277 | 1.7 | 6.1 | 0.00 | 0.26 | 0.01 | 76 | 1014.4 |
| 20260507101525 | 60 | 307 | 1.7 | 6.1 | 0.00 | 0.26 | 0.01 | 73 | 1014.5 |
| 20260507100016 | 58 | 355 | 3.5 | 5.2 | 0.00 | 0.26 | 0.01 | 79 | 1014.7 |
| 20260507094512 | 57 | 355 | 3.5 | 6.1 | 0.00 | 0.40 | 0.01 | 79 | 1014.6 |
| 20260507093010 | 57 | 13 | 1.7 | 5.2 | 0.00 | 0.40 | 0.01 | 82 | 1014.5 |
| 20260507091507 | 56 | 32 | 1.7 | 3.5 | 0.00 | 0.40 | 0.01 | 84 | 1014.4 |
| 20260507090006 | 56 | 327 | 1.7 | 4.3 | 0.00 | 0.53 | 0.01 | 87 | 1014.4 |
| 20260507084504 | 56 | 281 | 0.9 | 4.3 | 0.00 | 0.53 | 0.01 | 88 | 1014.3 |
| 20260507083003 | 55 | 5 | 0.9 | 5.2 | 0.00 | 0.53 | 0.01 | 90 | 1014.2 |
| 20260507081604 | 54 | 328 | 1.7 | 6.1 | 0.00 | 0.53 | 0.01 | 90 | 1014.3 |
| 20260507080056 | 54 | 301 | 2.6 | 4.3 | 0.00 | 0.53 | 0.01 | 91 | 1014.2 |
| 20260507074606 | 53 | 344 | 2.6 | 4.3 | 0.00 | 0.68 | 0.01 | 92 | 1014.1 |
| 20260507073059 | 53 | 317 | 0.9 | 4.3 | 0.00 | 0.68 | 0.01 | 93 | 1014.1 |
| 20260507071549 | 52 | 306 | 1.7 | 3.5 | 0.00 | 0.68 | 0.01 | 94 | 1014.1 |
| 20260507070047 | 52 | 346 | 0.9 | 3.5 | 0.00 | 0.68 | 0.01 | 95 | 1014.0 |
| 20260507064544 | 51 | 273 | 0.0 | 0.9 | 0.00 | 0.87 | 0.01 | 95 | 1013.9 |
| 20260507063047 | 51 | 347 | 0.0 | 0.0 | 0.00 | 0.87 | 0.01 | 96 | 1013.8 |
| 20260507061539 | 50 | 347 | 0.0 | 0.0 | 0.00 | 0.87 | 0.01 | 97 | 1013.6 |
| 20260507060036 | 50 | 347 | 0.0 | 0.0 | 0.00 | 0.87 | 0.01 | 97 | 1013.6 |
| 20260507054539 | 49 | 347 | 0.0 | 0.0 | 0.00 | 1.05 | 0.01 | 97 | 1013.6 |
| 20260507053029 | 49 | 347 | 0.0 | 0.0 | 0.00 | 1.05 | 0.01 | 97 | 1013.6 |
| 20260507051526 | 48 | 295 | 0.0 | 0.0 | 0.00 | 1.05 | 0.01 | 97 | 1013.5 |
| 20260507050032 | 48 | 138 | 0.0 | 0.0 | 0.00 | 1.05 | 0.01 | 96 | 1013.4 |
| 20260507044523 | 48 | 138 | 0.0 | 0.0 | 0.00 | 1.19 | 0.01 | 96 | 1013.2 |
| 20260507043016 | 48 | 138 | 0.0 | 0.0 | 0.00 | 1.19 | 0.01 | 96 | 1013.1 |
| 20260507041527 | 48 | 138 | 0.0 | 0.0 | 0.00 | 1.19 | 0.01 | 96 | 1013.1 |
| 20260507040014 | 48 | 138 | 0.0 | 0.0 | 0.00 | 1.19 | 0.01 | 96 | 1013.0 |
| 20260507034517 | 48 | 138 | 0.0 | 0.0 | 0.00 | 1.23 | 0.01 | 96 | 1013.0 |
| 20260507033013 | 48 | 138 | 0.9 | 2.6 | 0.00 | 1.23 | 0.01 | 96 | 1012.9 |
| 20260507031521 | 48 | 167 | 0.0 | 0.0 | 0.00 | 1.23 | 0.01 | 96 | 1013.1 |
| 20260507030013 | 48 | 167 | 0.0 | 0.0 | 0.00 | 1.23 | 0.01 | 96 | 1013.0 |
| 20260507024513 | 48 | 167 | 0.0 | 0.0 | 0.00 | 1.23 | 0.01 | 96 | 1013.0 |
| 20260507023009 | 48 | 167 | 0.0 | 0.0 | 0.00 | 1.23 | 0.01 | 96 | 1013.0 |
| 20260507021508 | 48 | 167 | 0.0 | 0.0 | 0.00 | 1.23 | 0.01 | 96 | 1012.8 |
| 20260507020008 | 48 | 167 | 0.0 | 0.0 | 0.00 | 1.23 | 0.01 | 96 | 1012.7 |
| 20260507014515 | 48 | 167 | 0.0 | 0.0 | 0.01 | 1.23 | 0.01 | 96 | 1012.7 |
| 20260507013005 | 48 | 167 | 0.0 | 0.0 | 0.01 | 1.23 | 0.01 | 96 | 1012.7 |
| 20260507011506 | 48 | 167 | 0.0 | 0.0 | 0.01 | 1.23 | 0.01 | 95 | 1012.6 |
| 20260507010003 | 49 | 167 | 0.0 | 0.0 | 0.01 | 1.24 | 0.01 | 96 | 1012.6 |
| 20260507004505 | 49 | 167 | 0.0 | 0.0 | 0.00 | 1.23 | 0.00 | 96 | 1012.6 |
| 20260507003001 | 49 | 167 | 0.0 | 1.7 | 0.00 | 1.23 | 0.00 | 96 | 1012.6 |
| 20260507001602 | 49 | 167 | 0.9 | 2.6 | 0.00 | 1.23 | 0.00 | 96 | 1012.5 |
| 20260507000058 | 49 | 192 | 0.0 | 1.7 | 0.00 | 1.23 | 0.00 | 96 | 1012.4 |
| 20260506234602 | 49 | 214 | 0.0 | 0.0 | 0.00 | 1.23 | 0.00 | 96 | 1012.4 |
| 20260506233059 | 49 | 214 | 0.0 | 0.9 | 0.00 | 1.23 | 0.00 | 96 | 1012.4 |
| 20260506231559 | 49 | 215 | 0.0 | 0.9 | 0.00 | 1.23 | 0.00 | 96 | 1012.4 |
| 20260506230057 | 49 | 214 | 0.0 | 1.7 | 0.00 | 1.23 | 0.00 | 96 | 1012.3 |
| 20260506224551 | 49 | 213 | 0.9 | 2.6 | 0.00 | 1.23 | 0.00 | 95 | 1012.1 |
| 20260506223055 | 49 | 259 | 0.0 | 0.9 | 0.00 | 1.23 | 0.00 | 95 | 1012.0 |
| 20260506221548 | 49 | 259 | 0.0 | 0.9 | 0.00 | 1.23 | 0.00 | 95 | 1011.9 |
| 20260506220047 | 49 | 259 | 0.0 | 1.7 | 0.00 | 1.23 | 0.00 | 95 | 1011.8 |
| 20260506214545 | 49 | 259 | 0.0 | 1.7 | 0.01 | 1.28 | 1.23 | 95 | 1011.9 |
| 20260506213102 | 49 | 298 | 0.0 | 0.0 | 0.01 | 1.28 | 1.23 | 95 | 1011.8 |
| 20260506211602 | 49 | 299 | 0.0 | 2.6 | 0.01 | 1.28 | 1.23 | 95 | 1011.9 |
| 20260506210043 | 49 | 126 | 0.0 | 0.9 | 0.01 | 1.28 | 1.23 | 94 | 1011.8 |
| 20260506204546 | 49 | 126 | 0.0 | 2.6 | 0.00 | 1.27 | 1.22 | 95 | 1011.7 |
| 20260506203041 | 49 | 125 | 1.7 | 3.5 | 0.00 | 1.27 | 1.22 | 95 | 1011.5 |
| 20260506201550 | 49 | 99 | 1.7 | 2.6 | 0.00 | 1.27 | 1.22 | 94 | 1011.5 |
| 20260506200034 | 49 | 61 | 0.9 | 2.6 | 0.00 | 1.27 | 1.22 | 94 | 1011.4 |
| 20260506194533 | 50 | 94 | 0.9 | 2.6 | 0.05 | 1.28 | 1.22 | 94 | 1011.4 |